Weather History for Milton, FL

Change the Weather History Date:

Monday, November 5, 2012

  Actual Average (KNSE) Record (KNSE)
Temperature  
Mean Temperature 62 °F -  
Max Temperature 73 °F 71 °F 82 °F (2003)
Min Temperature 50 °F 52 °F 41 °F (2010)
Degree Days  
Heating Degree Days 4    
Growing Degree Days 12 (Base 50)    
Moisture  
Dew Point 45 °F    
Average Humidity 64    
Maximum Humidity 97    
Minimum Humidity 24    
Precipitation  
Precipitation 0.55 in - - ()
Sea Level Pressure  
Sea Level Pressure 29.97 in    
Wind  
Wind Speed 6 mph (NE)    
Max Wind Speed 10 mph    
Max Gust Speed -    
Visibility 10 miles    
Events Rain , Thunderstorm    
Averages and records for this station are not official NWS values.
T = Trace of Precipitation, MM = Missing Value Source: NWS Daily Summary

Daily Weather History Graph

Daily Weather History Graph

Search for Another Location

Airport:

Trip Planner

Search our weather history database for the weather conditions in past years. The results will help you decide how hot, cold, wet, or windy it might be!

Date:

Astronomy

Nov. 05, 2012 Rise Set
Actual Time 6:06 AM CST 4:56 PM CST
Civil Twilight 5:41 AM CST 5:21 PM CST
Nautical Twilight 5:12 AM CST 5:50 PM CST
Astronomical Twilight 4:44 AM CST 6:18 PM CST
Moon 10:32 PM CST (11/5) 11:24 AM CST (11/5)
Length of Visible Light 11h 40m
Length of Day
10h 50m
Waning Gibbous, 62% of the Moon is Illuminated
Nov 5
Waning Gibbous
Nov 6
Last Quarter
Nov 13
New
Nov 20
First Quarter
Nov 28
Full

Hourly Weather History & Observations

Time (CST) Temp. Dew Point Humidity Pressure Visibility Wind Dir Wind Speed Gust Speed Precip Events Conditions
12:56 AM 55.9 °F 52.0 °F 87% 30.01 in 10.0 mi North 8.1 mph - N/A   Clear
1:56 AM 55.0 °F 50.0 °F 83% 30.01 in 10.0 mi North 8.1 mph - N/A   Clear
2:56 AM 53.1 °F 48.9 °F 86% 30.01 in 10.0 mi NNW 3.5 mph - N/A   Clear
3:56 AM 50.0 °F 46.9 °F 89% 30.02 in 10.0 mi North 4.6 mph - N/A   Clear
4:56 AM 51.1 °F 46.9 °F 86% 30.02 in 10.0 mi North 4.6 mph - N/A   Clear
5:56 AM 51.1 °F 46.0 °F 83% 30.04 in 10.0 mi NE 4.6 mph - N/A   Clear
6:56 AM 51.1 °F 46.0 °F 83% 30.04 in 10.0 mi North 5.8 mph - N/A   Clear
7:56 AM 55.0 °F 46.0 °F 72% 30.05 in 10.0 mi NE 5.8 mph - N/A   Clear
8:56 AM 57.9 °F 45.0 °F 62% 30.05 in 10.0 mi NE 5.8 mph - N/A   Clear
9:56 AM 64.0 °F 39.0 °F 40% 30.04 in 10.0 mi East 5.8 mph - N/A   Clear
10:56 AM 69.1 °F 36.0 °F 30% 30.01 in 10.0 mi ENE 6.9 mph - N/A   Clear
11:56 AM 71.1 °F 35.1 °F 27% 29.97 in 10.0 mi ESE 4.6 mph - N/A   Clear
12:56 PM 72.0 °F 36.0 °F 27% 29.95 in 10.0 mi SSE 4.6 mph - N/A   Clear
1:56 PM 73.0 °F 34.0 °F 24% 29.93 in 10.0 mi SE 3.5 mph - N/A   Overcast
2:56 PM 71.1 °F 41.0 °F 34% 29.94 in 10.0 mi Variable 5.8 mph - N/A   Clear
3:56 PM 69.1 °F 45.0 °F 42% 29.94 in 10.0 mi Calm Calm - N/A   Mostly Cloudy
4:56 PM 66.0 °F 41.0 °F 40% 29.96 in 10.0 mi North 9.2 mph - N/A   Mostly Cloudy
5:56 PM 61.0 °F 46.9 °F 60% 29.94 in 10.0 mi SSE 5.8 mph - 0.00 in   Overcast
6:56 PM 62.1 °F 46.0 °F 56% 29.93 in 10.0 mi South 4.6 mph - 0.00 in   Overcast
7:56 PM 55.9 °F 51.1 °F 84% 29.93 in 10.0 mi SE 3.5 mph - 0.05 in Rain Rain
8:56 PM 57.0 °F 51.1 °F 81% 29.92 in 10.0 mi Calm Calm - 0.01 in   Scattered Clouds
9:51 PM 55.4 °F 50.0 °F 82% 29.92 in 10.0 mi ENE 5.8 mph - 0.01 in Thunderstorm Thunderstorm
9:56 PM 55.9 °F 50.0 °F 80% 29.87 in 10.0 mi ENE 4.6 mph - 0.01 in Thunderstorm Thunderstorm
10:56 PM 57.9 °F 48.9 °F 72% 29.90 in 10.0 mi NNW 10.4 mph - 0.00 in Rain , Thunderstorm Light Thunderstorms and Rain
11:56 PM 54.0 °F 53.1 °F 97% 29.88 in 5.0 mi South 3.5 mph - 0.48 in Rain , Thunderstorm Heavy Thunderstorms and Rain